Location: Potomac
(46.8816°N, 113.5795°W)
Time: 12:39:44
(UTC+00:00)

AO-91 - Pass Details

Date: 02 July 2022
Orbit: 450 x 797 km, 97.7° (Epoch: 11 August)

Event Time Altitude Azimuth Distance (km) Brightness Sun altitude
Rises 07:40:19 0° 355° (N) 2,529 ? -20.1°
Reaches altitude 10° 07:43:16 10° 327° (NNW) 1,612 ? -20.1°
Maximum altitude 07:44:55 13° 298° (WNW) 1,415 ? -20.1°
Drops below altitude 10° 07:46:34 10° 268° (W) 1,587 ? -20.1°
Enters shadow 07:46:40 10° 267° (W) 1,608 ? -20.1°
